| time (UTC) | temp C | wind direction | speed KPH | gust KPH | rain 1hr cm | rain 24hr cm | rain mn cm | humidity % | barometer mb |
| 20260504214551 | 6 | 0 | 1.6 | 11.3 | 0.00 | 0.00 | 0.00 | 56 | 1015.8 |
| 20260504213102 | 7 | 46 | 6.4 | 16.1 | 0.00 | 0.00 | 0.00 | 51 | 1015.6 |
| 20260504211553 | 8 | 148 | 8.0 | 16.1 | 0.00 | 0.00 | 0.00 | 45 | 1015.8 |
| 20260504210057 | 10 | 311 | 0.0 | 6.4 | 0.00 | 0.00 | 0.00 | 43 | 1015.8 |
| 20260504204554 | 10 | 124 | 1.6 | 17.7 | 0.00 | 0.00 | 0.00 | 37 | 1015.9 |
| 20260504203106 | 8 | 104 | 1.6 | 9.7 | 0.00 | 0.00 | 0.00 | 38 | 1016.0 |
| 20260504201557 | 7 | 205 | 1.6 | 12.9 | 0.00 | 0.00 | 0.00 | 52 | 1016.2 |
| 20260504194552 | 9 | 240 | 1.6 | 22.5 | 0.00 | 0.00 | 0.00 | 44 | 1016.5 |
| 20260504193054 | 11 | 174 | 8.0 | 22.5 | 0.00 | 0.00 | 0.00 | 38 | 1016.5 |
| 20260504191557 | 11 | 219 | 8.0 | 24.1 | 0.00 | 0.00 | 0.00 | 37 | 1016.5 |
| 20260504190053 | 10 | 255 | 4.8 | 24.1 | 0.00 | 0.00 | 0.00 | 39 | 1016.4 |
| 20260504184558 | 10 | 192 | 8.0 | 17.7 | 0.00 | 0.00 | 0.00 | 39 | 1016.8 |
| 20260504183053 | 10 | 25 | 3.2 | 11.3 | 0.00 | 0.00 | 0.00 | 41 | 1016.8 |
| 20260504181549 | 8 | 124 | 3.2 | 11.3 | 0.00 | 0.00 | 0.00 | 46 | 1017.0 |
| 20260504180051 | 7 | 224 | 1.6 | 11.3 | 0.00 | 0.00 | 0.00 | 50 | 1017.4 |
| 20260504174554 | 7 | 115 | 1.6 | 16.1 | 0.00 | 0.00 | 0.00 | 50 | 1017.5 |
| 20260504173050 | 6 | 131 | 1.6 | 20.9 | 0.00 | 0.00 | 0.00 | 50 | 1017.4 |
| 20260504171554 | 6 | 288 | 4.8 | 16.1 | 0.00 | 0.00 | 0.00 | 50 | 1017.1 |
| 20260504081553 | 3 | 268 | 1.6 | 4.8 | 0.00 | 0.00 | 0.00 | 38 | 1018.5 |
| 20260504044603 | 4 | 283 | 0.0 | 4.8 | 0.00 | 0.00 | 0.00 | 41 | 1020.2 |
| 20260504043055 | 4 | 281 | 0.0 | 6.4 | 0.00 | 0.00 | 0.00 | 42 | 1020.2 |
| 20260504041554 | 3 | 269 | 0.0 | 3.2 | 0.00 | 0.00 | 0.00 | 43 | 1020.2 |
| 20260504040107 | 4 | 280 | 0.0 | 1.6 | 0.00 | 0.00 | 0.00 | 43 | 1020.3 |
| 20260504034615 | 4 | 284 | 0.0 | 3.2 | 0.00 | 0.00 | 0.00 | 44 | 1020.3 |
| 20260504033055 | 5 | 280 | 0.0 | 3.2 | 0.00 | 0.00 | 0.00 | 44 | 1020.2 |
| 20260504031555 | 4 | 270 | 0.0 | 1.6 | 0.00 | 0.00 | 0.00 | 46 | 1020.4 |
| 20260504030120 | 4 | 0 | 0.0 | 1.6 | 0.00 | 0.00 | 0.00 | 47 | 1020.2 |
| 20260504024559 | 5 | 243 | 0.0 | 1.6 | 0.00 | 0.00 | 0.00 | 47 | 1020.2 |
| 20260504023054 | 6 | 0 | 1.6 | 9.7 | 0.00 | 0.00 | 0.00 | 43 | 1020.2 |
| 20260504021557 | 6 | 240 | 0.0 | 3.2 | 0.00 | 0.00 | 0.00 | 45 | 1020.2 |
| 20260504020107 | 6 | 203 | 0.0 | 8.0 | 0.00 | 0.00 | 0.00 | 44 | 1020.1 |
| 20260504014600 | 6 | 207 | 0.0 | 3.2 | 0.00 | 0.00 | 0.00 | 45 | 1020.3 |
| 20260504013059 | 6 | 219 | 0.0 | 1.6 | 0.00 | 0.00 | 0.00 | 45 | 1020.1 |
| 20260504011554 | 7 | 0 | 0.0 | 1.6 | 0.00 | 0.00 | 0.00 | 42 | 1020.1 |
| 20260504010052 | 7 | 112 | 0.0 | 1.6 | 0.00 | 0.00 | 0.00 | 42 | 1020.2 |
| 20260504004557 | 7 | 0 | 1.6 | 6.4 | 0.00 | 0.00 | 0.00 | 42 | 1020.3 |
| 20260504003056 | 8 | 10 | 0.0 | 8.0 | 0.00 | 0.00 | 0.00 | 41 | 1020.5 |
| 20260504001605 | 8 | 0 | 1.6 | 8.0 | 0.00 | 0.00 | 0.00 | 43 | 1020.9 |
| 20260504000056 | 8 | 312 | 1.6 | 4.8 | 0.00 | 0.00 | 0.00 | 41 | 1020.9 |
| 20260503234552 | 8 | 121 | 0.0 | 24.1 | 0.00 | 0.00 | 0.00 | 42 | 1020.7 |
| 20260503233059 | 8 | 239 | 9.7 | 29.0 | 0.00 | 0.00 | 0.00 | 38 | 1021.4 |
| 20260503231554 | 10 | 116 | 6.4 | 20.9 | 0.00 | 0.00 | 0.00 | 33 | 1021.1 |
| 20260503230054 | 10 | 257 | 6.4 | 22.5 | 0.00 | 0.00 | 0.00 | 31 | 1020.9 |
| 20260503224557 | 12 | 200 | 8.0 | 17.7 | 0.00 | 0.00 | 0.00 | 26 | 1020.6 |
| 20260503223059 | 11 | 132 | 1.6 | 9.7 | 0.00 | 0.00 | 0.00 | 31 | 1020.3 |
| 20260503221603 | 10 | 82 | 3.2 | 9.7 | 0.00 | 0.00 | 0.00 | 38 | 1020.4 |
| 20260503220055 | 10 | 64 | 4.8 | 11.3 | 0.00 | 0.00 | 0.00 | 36 | 1020.9 |